Regional Weather Roundup
Issued by NWS Wakefield, VA

Home | Current Version | Previous Version | Graphics & Text | Print | Product List | Glossary On
Versions: 1 2 3 4 5 6 7 8 9 10 11 12 13 14 15 16 17 18 19 20 21 22 23 24 25 26 27 28 29 30 31 32 33 34 35 36 37 38 39 40 41 42 43 44 45 46 47 48 49 50
000
ASUS41 KAKQ 051915
RWRAKQ

REGIONAL WEATHER ROUNDUP
NATIONAL WEATHER SERVICE WAKEFIELD VA
300 PM EDT SUN JUL 05 2015

Note: "fair" indicates few or no clouds below 12,000 feet with no
significant weather and/or obstructions to visibility. * = Denotes
station may not report precipitation (e.g., rain,snow,etc.),
thunder or fog.

VAZ042-051-052>054-056-052000-
NORTHERN VIRGINIA

CITY           SKY/WX    TMP DP  RH WIND       PRES   REMARKS
WASH NATIONAL  PTSUNNY   85  67  54 CALM      30.13F
DULLES         PTSUNNY   80  69  69 VRB3      30.13F
FORT BELVOIR   MOSUNNY   83  70  65 SE7       30.12F
QUANTICO       MOSUNNY   81  69  67 CALM      30.13F
FREDERICKSBRG* PTSUNNY   83  70  64 SE5       30.11F
STAFFORD*      PTSUNNY   80  70  70 E6        30.16F
WARRENTON      PTSUNNY   82  73  75 W5        30.13F
CULPEPER*      CLOUDY    78  70  76 CALM      30.14F
MANASSAS*      PTSUNNY  N/A N/A N/A CALM      30.13F
LEESBURG*      MOSUNNY   82  72  69 S8        30.14F
WINCHESTER     MOSUNNY   82  68  61 SE10      30.14F
FRONT ROYAL*   CLOUDY    77  70  78 E5        30.12F
LURAY*         CLOUDY    81  68  65 CALM      30.13F
$$

VAZ048-049-060>072-079>083-052000-
CENTRAL AND SOUTH CENTRAL VIRGINIA

CITY           SKY/WX    TMP DP  RH WIND       PRES   REMARKS
RICHMOND       CLOUDY    83  71  67 SE5       30.11F
CHESTERFIELD*  NOT AVBL
PETERSBURG*    CLOUDY    86  76  72 SE5       30.11F HX  95
HANOVER        CLOUDY    83  71  67 VRB3      30.13F
TAPPAHANNOCK*  CLOUDY    84  66  55 E5        30.13F
QUINTON*       NOT AVBL
CHARLOTTSVILLE CLOUDY    78  69  73 E8        30.13F
GORDONSVILLE*  MOCLDY    79  70  73 NE5       30.13F
ORANGE*        PTSUNNY   79  70  73 SE3       30.15F
LOUISA*        PTSUNNY   81  72  74 SE6       30.13F
BUMPASS*       MOCLDY    80  71  73 E3        30.13F
FARMVILLE*     PTSUNNY   85  71  62 NE3       30.10F
CREWE*         MOCLDY    79  73  81 N3        30.11F
FORT PICKETT*  CLOUDY    82  74  77 E6        30.10F
CHASE CITY*    FAIR      86  74  66 CALM      30.10F
CLARKSVILLE*   MOCLDY    86  72  62 CALM      30.09F
SOUTH HILL*    PTSUNNY   86  72  63 CALM      30.15F
LAWRENCEVILLE* NOT AVBL
EMPORIA*         N/A     86  72  62 CALM      30.10F
$$

VAZ088>098-052000-
SOUTHEAST VIRGINIA

CITY           SKY/WX    TMP DP  RH WIND       PRES   REMARKS
NORFOLK        MOSUNNY   81  70  69 E8        30.11F
VIRGINIA BEACH PTSUNNY   82  71  69 E9        30.11S
NORFOLK NAVAL  CLOUDY    79  72  79 E10       30.13F THUNDER
WEST POINT*    PTSUNNY   85  69  57 NE6       30.13F
SALUDA*        FAIR      81  68  64 E3        30.13S
NEWPORT NEWS   MOSUNNY   83  73  72 E10       30.12F
LANGLEY AFB    MOSUNNY   82  72  71 E13       30.11S
FORT EUSTIS    MOSUNNY   84  78  84 E6        30.09F HX  95
WILLIAMSBURG*  MOSUNNY   90  73  58 E5        30.12S HX  98
HR EXEC AP*    MOCLDY    79  73  83 E6        30.13S THUNDER
FRANKLIN*      PTSUNNY   85  74  68 NE7       30.09F
WAKEFIELD      PTSUNNY   84  73  69 E5        30.10F
$$

VAZ020-022-025-037-045-052000-
WEST CENTRAL AND SOUTHWEST VIRGINIA

CITY           SKY/WX    TMP DP  RH WIND       PRES   REMARKS
STAUNTON*      CLOUDY    80  68  65 SE6       30.16F
WAYNESBORO*    CLOUDY    74  67  79 SE7       30.16F
HOT SPRINGS VA CLOUDY    71  68  90 SE6       30.23F
LYNCHBURG      CLOUDY    79  71  76 N8        30.14F
DANVILLE       PTSUNNY   83  71  67 VRB3      30.09F
SOUTH BOSTON*  FAIR      84  71  64 MISG      30.09F
MARTINSVILLE   PTSUNNY   82  71  69 E6        30.12F
ROANOKE        PTSUNNY   78  69  73 SE10      30.13F
BLACKSBURG     DRIZZLE   75  70  83 E12       30.17F
DUBLIN*        PTSUNNY   79  72  79 E9        30.14F
MARION*        PTSUNNY   78  66  66 SE7       30.15F
HILLSVILLE*    LGT RAIN  71  68  91 S3        30.16S
RICHLANDS*     FAIR      79  67  66 SE7G17    30.10F
WISE*          CLOUDY    72  63  73 W10       30.12F
ABINGDON*      CLOUDY    79  66  63 N5        30.08F
$$

MDZ021>025-VAZ099-100-052000-
SOUTHERN MARYLAND AND THE DELMARVA PENINSULA

CITY           SKY/WX    TMP DP  RH WIND       PRES   REMARKS
PATUXENT RIVER PTSUNNY   80  68  66 SE7       30.13F
BAY BRIDGE APT   N/A     77  68  73 W6        30.14F
LEONARDTOWN    FAIR      79  68  69 E5        30.14F
DOVER          MOSUNNY   79  70  72 E8        30.12F
GEORGETOWN     MOSUNNY   82  67  60 E3        30.13F
EASTON         PTSUNNY   84  70  61 CALM      30.16F
CAMBRIDGE      MOSUNNY   81  68  65 CALM      30.12F
SALISBURY      PTSUNNY   82  70  66 S6        30.12F
OCEAN CITY     MOSUNNY   77  68  73 SE8       30.14S
WALLOPS ISLAND PTSUNNY   80  72  76 SE9       30.14S
ACCOMACK*      PTSUNNY   81  73  78 SE7       30.13S
$$

NCZ012>017-030>032-052000-
NORTH CENTRAL AND EASTERN NORTH CAROLINA

CITY           SKY/WX    TMP DP  RH WIND       PRES   REMARKS
ROANOKE RAPIDS FAIR      88  72  58 S3        30.08F
RALEIGH        PTSUNNY   82  73  74 E5        30.09F
ELIZABETH CITY PTSUNNY   82  73  74 N8        30.11R
AHOSKIE*       MOSUNNY  N/A N/A N/A S3        30.08F
EDENTON*         N/A     87  74  65 S6        30.10S HX  95
CURRITUCK*     LGT RAIN  78  74  86 E3        30.14R
KILL DEVIL HLS MOSUNNY   90  73  57 E8        30.11S HX  97
MANTEO         MOSUNNY   85  75  72 S10       30.11F
CAPE HATTERAS  SUNNY     83  75  77 SW12      30.14F
TARBORO*         N/A     91  71  52 S7        30.10S HX  96
GOLDSBORO      SUNNY     90  72  54 S7        30.07F HX  97
WASHINGTON     MOSUNNY   87  72  61 SE6       30.11S
GREENVILLE     SUNNY     90  70  51 W5        30.11F HX  95
NEW BERN       MOSUNNY   91  72  53 SW12      30.12F HX  98
WILMINGTON     SUNNY     90  67  46 SW8       30.12S
$$

VAZ048-052000-
ELSEWHERE

CITY           SKY/WX    TMP DP  RH WIND       PRES   REMARKS
HARRISBURG PA  CLOUDY    79  67  66 CALM      30.13F
BALTIMORE      PTSUNNY   80  67  64 SE3       30.12F
ANNAPOLIS      SUNNY     78  67  68 SE8       30.13F
ANDREWS AFB    MOSUNNY   81  77  89 VRB6      30.12F
PHILADELPHIA   MOSUNNY   83  62  49 VRB6      30.12F
HENDERSON NC   PTSUNNY   84  68  57 CALM      30.09F
GREENSBORO     PTSUNNY   85  67  54 S13G20    30.09F
ROCKY MOUNT    MOSUNNY   89  71  55 S9        30.09F HX  95
$$

VAZ100-052000-
MARINE

STATION/POSITION TIME  TEMP    WIND        PRES    WAVE   SWELL
                       AIR SEA DIR/SP/G            HT/PER HT/PER
                 (UTC) (F)     (DEG/KT/KT) (MB)    (FT/S) (FT/S)
BRANDYWINE LGT   1800   72 74  150/  4/  5 1021.0F
CAPE MAY NJ      1800   75 76  170/  5/  6 1020.5F
LEWES DE         1800   75 74   90/  9/ 12 1020.6F
15NM E FENWICK I 1850   74 76              1020.7R   3/ 8
OCEAN-CITY-INLET 1800   76 74  100/  4/  6 1020.5F
WACHAPREAGUE VA  1800   76 82  100/  5/  6 1020.5F
THOMAS POINT MD  1900          250/  3       N/A
GOOSES REEF MD   1900   78 83   CALM  /  2 1021.3F
COVE POINT MD    1800   76     200/  4/  5 1021.4F
SOLOMONS ISLAND  1800      81                N/A
BISHOPS HEAD MD  1800   77     270/  4/  5 1020.4F
PINEY POINT MD   1800          170/  5/  6   N/A
CAMBRIDGE MD     1800   79 79   40/  3/  4 1020.2F
LEWISETTA VA     1800   77 80   90/  7/  9 1020.3F
RAPPAHANNOCK LGT 1800          330/  2/  2 1020.7F
STINGRAY PT      1900   79 83  100/  2/  4 1020.3F   1
YORK RVR RNG VA  1800   78     110/  5/  6 1019.9F
YORKTOWN VA      1800   78 79   80/ 10/ 11 1020.0F
JAMESTOWN VA     1900   82 84  100/  6/ 10   N/A
DOMINION TERM VA 1800   77      80/ 12/ 16 1020.0F
KIPTOPEKE VA     1800      82  110/  9/ 11   N/A
CHES BAY BRIDGE  1800   76 78   70/ 10/ 12 1019.9F
CAPE HENRY VA    1800   77     100/  9/ 11   N/A
CHESAPEAKE LGHT  1800   76     100/ 10/ 12 1020.9F
WILLOUBY STN VA  1800   76      80/ 12/ 13 1020.9F
CAPE HENRY BUOY  1828      78                N/A     3/ 7
1ST LANDING BUOY 1900      79              1019.7F   1/ 3
CAPE CHARLES BUO 1826      77                N/A     2/ 6   2/ 6
OFFSHORE WE BUOY 1811      78                N/A     3/ 6   3/ 6
64NM E OF VA BCH 1850   77 78  120/  6/  6 1019.8F   4/ 6   3/ 6
DUCK PIER NC     1800   83 78   90/  6/  8   N/A
44100 DUCK FRF   1824      81                N/A     3/ 6   2/14
44056 DUCK FRF   1811      80                N/A     2/ 6
OREGON INLET NC  1800   83 79  160/  7/  8 1020.2F
HATTERAS NC      1800   82 80  200/ 10/ 13 1020.5F
DIAMOND SHLS NC  1850   81 81  220/ 12/ 14 1020.6F   3/ 5   2/ 9
CAPE LOOKOUT NC  1900   82     200/ 13/ 15 1020.4F
$$


USA.gov is the U.S. government's official web portal to all federal, state and local government web resources and services.